Time,TemperatureF,DewpointF,PressureIn,WindDirection,WindDirectionDegrees,WindSpeedMPH,WindSpeedGustMPH,Humidity,HourlyPrecipIn,Conditions,Clouds,dailyrainin,SoftwareType,DateUTC
2013-05-08 00:00:00,54.2,47.2,30.06,NE,52,3.0,4.0,77,0.00,,---,0.00,VWS V14.01,2013-05-08 07:00:00,
2013-05-08 00:02:00,54.2,47.2,30.06,NE,53,0.0,3.0,77,0.00,,---,0.00,VWS V14.01,2013-05-08 07:02:00,
2013-05-08 00:07:00,54.3,47.2,30.06,NE,53,0.0,3.0,77,0.00,,---,0.00,VWS V14.01,2013-05-08 07:07:00,
2013-05-08 00:12:00,54.3,46.9,30.06,NE,53,0.0,3.0,76,0.00,,---,0.00,VWS V14.01,2013-05-08 07:12:00,
2013-05-08 00:15:00,54.4,47.0,30.06,NE,53,3.0,3.0,76,0.00,,---,0.00,VWS V14.01,2013-05-08 07:15:00,
2013-05-08 00:17:00,54.4,47.0,30.07,NE,49,1.0,3.0,76,0.00,,---,0.00,VWS V14.01,2013-05-08 07:17:00,
2013-05-08 00:22:00,54.4,47.0,30.07,NE,52,0.0,4.0,76,0.00,,---,0.00,VWS V14.01,2013-05-08 07:22:00,
2013-05-08 00:27:00,54.4,47.0,30.06,NE,53,0.0,4.0,76,0.00,,---,0.00,VWS V14.01,2013-05-08 07:27:00,
2013-05-08 00:30:00,54.5,47.1,30.06,NE,53,0.0,4.0,76,0.00,,---,0.00,VWS V14.01,2013-05-08 07:30:00,
2013-05-08 00:32:00,54.5,47.1,30.06,NE,52,1.0,2.0,76,0.00,,---,0.00,VWS V14.01,2013-05-08 07:32:00,
2013-05-08 00:37:00,54.5,47.1,30.06,NE,52,1.0,3.0,76,0.00,,---,0.00,VWS V14.01,2013-05-08 07:37:00,
2013-05-08 00:42:00,54.5,47.1,30.06,NE,53,0.0,3.0,76,0.00,,---,0.00,VWS V14.01,2013-05-08 07:42:00,
2013-05-08 00:45:00,54.6,47.2,30.06,NE,53,0.0,3.0,76,0.00,,---,0.00,VWS V14.01,2013-05-08 07:45:00,
2013-05-08 00:47:00,54.6,47.2,30.06,NE,53,0.0,3.0,76,0.00,,---,0.00,VWS V14.01,2013-05-08 07:47:00,
2013-05-08 00:52:00,54.5,47.1,30.06,NE,49,1.0,3.0,76,0.00,,---,0.00,VWS V14.01,2013-05-08 07:52:00,
2013-05-08 00:57:00,54.5,47.1,30.06,NE,52,3.0,3.0,76,0.00,,---,0.00,VWS V14.01,2013-05-08 07:57:00,
2013-05-08 01:00:00,54.5,47.1,30.06,NE,52,0.0,3.0,76,0.00,,---,0.00,VWS V14.01,2013-05-08 08:00:00,
2013-05-08 01:02:00,54.5,47.1,30.05,NE,53,3.0,4.0,76,0.00,,---,0.00,VWS V14.01,2013-05-08 08:02:00,
2013-05-08 01:07:00,54.4,47.0,30.05,NE,53,0.0,4.0,76,0.00,,---,0.00,VWS V14.01,2013-05-08 08:07:00,
2013-05-08 01:12:00,54.3,47.2,30.06,NE,53,0.0,4.0,77,0.00,,---,0.00,VWS V14.01,2013-05-08 08:12:00,
2013-05-08 01:15:00,54.2,47.2,30.05,NE,53,0.0,4.0,77,0.00,,---,0.00,VWS V14.01,2013-05-08 08:15:00,
2013-05-08 01:17:00,54.2,47.2,30.05,NE,52,0.0,0.0,77,0.00,,---,0.00,VWS V14.01,2013-05-08 08:17:00,
2013-05-08 01:22:00,54.1,47.4,30.05,NE,53,0.0,3.0,78,0.00,,---,0.00,VWS V14.01,2013-05-08 08:22:00,
2013-05-08 01:27:00,54.1,47.4,30.05,NE,52,1.0,4.0,78,0.00,,---,0.00,VWS V14.01,2013-05-08 08:27:00,
2013-05-08 01:30:00,54.1,47.4,30.05,NE,52,0.0,4.0,78,0.00,,---,0.00,VWS V14.01,2013-05-08 08:30:00,
2013-05-08 01:32:00,54.1,47.4,30.05,NE,53,0.0,0.0,78,0.00,,---,0.00,VWS V14.01,2013-05-08 08:32:00,
2013-05-08 01:37:00,54.2,47.5,30.05,NE,53,0.0,0.0,78,0.00,,---,0.00,VWS V14.01,2013-05-08 08:37:00,
2013-05-08 01:42:00,54.2,47.5,30.05,NE,53,0.0,0.0,78,0.00,,---,0.00,VWS V14.01,2013-05-08 08:42:00,
2013-05-08 01:45:00,54.3,47.9,30.05,NE,53,0.0,0.0,79,0.00,,---,0.00,VWS V14.01,2013-05-08 08:45:00,
2013-05-08 01:47:00,54.3,47.6,30.05,NE,53,0.0,0.0,78,0.00,,---,0.00,VWS V14.01,2013-05-08 08:47:00,
2013-05-08 01:52:00,54.4,48.0,30.05,NE,52,0.0,0.0,79,0.00,,---,0.00,VWS V14.01,2013-05-08 08:52:00,
2013-05-08 01:57:00,54.4,48.0,30.05,NE,53,0.0,0.0,79,0.00,,---,0.00,VWS V14.01,2013-05-08 08:57:00,
2013-05-08 02:00:00,54.4,48.0,30.05,NE,53,0.0,0.0,79,0.00,,---,0.00,VWS V14.01,2013-05-08 09:00:00,
2013-05-08 02:02:00,54.5,48.1,30.05,NE,53,0.0,0.0,79,0.00,,---,0.00,VWS V14.01,2013-05-08 09:02:00,
2013-05-08 02:07:00,54.5,48.1,30.05,NE,53,0.0,0.0,79,0.00,,---,0.00,VWS V14.01,2013-05-08 09:07:00,
2013-05-08 02:12:00,54.6,48.2,30.05,NE,53,0.0,0.0,79,0.00,,---,0.00,VWS V14.01,2013-05-08 09:12:00,
2013-05-08 02:15:00,54.6,48.2,30.05,NE,53,0.0,0.0,79,0.00,,---,0.00,VWS V14.01,2013-05-08 09:15:00,
2013-05-08 02:17:00,54.6,48.2,30.05,NE,52,0.0,0.0,79,0.00,,---,0.00,VWS V14.01,2013-05-08 09:17:00,
2013-05-08 02:22:00,54.5,48.1,30.05,NE,53,0.0,0.0,79,0.00,,---,0.00,VWS V14.01,2013-05-08 09:22:00,
2013-05-08 02:27:00,54.5,48.1,30.05,NE,53,0.0,0.0,79,0.00,,---,0.00,VWS V14.01,2013-05-08 09:27:00,
2013-05-08 02:30:00,54.5,48.1,30.05,NE,53,0.0,0.0,79,0.00,,---,0.00,VWS V14.01,2013-05-08 09:30:00,
2013-05-08 02:33:00,54.5,48.1,30.05,NE,53,0.0,0.0,79,0.00,,---,0.00,VWS V14.01,2013-05-08 09:33:00,
2013-05-08 02:38:00,54.4,48.0,30.05,NE,53,0.0,0.0,79,0.00,,---,0.00,VWS V14.01,2013-05-08 09:38:00,
2013-05-08 02:43:00,54.4,48.0,30.05,NE,53,0.0,0.0,79,0.00,,---,0.00,VWS V14.01,2013-05-08 09:43:00,
2013-05-08 02:45:00,54.4,48.0,30.05,NE,52,0.0,0.0,79,0.00,,---,0.00,VWS V14.01,2013-05-08 09:45:00,
2013-05-08 02:48:00,54.4,48.0,30.05,NE,52,0.0,0.0,79,0.00,,---,0.00,VWS V14.01,2013-05-08 09:48:00,
2013-05-08 02:53:00,54.3,47.9,30.05,NE,53,0.0,0.0,79,0.01,,---,0.01,VWS V14.01,2013-05-08 09:53:00,
2013-05-08 02:58:00,54.3,48.3,30.05,NE,53,0.0,0.0,80,0.01,,---,0.01,VWS V14.01,2013-05-08 09:58:00,
2013-05-08 03:00:00,54.3,48.3,30.05,NE,53,0.0,2.0,80,0.01,,---,0.01,VWS V14.01,2013-05-08 10:00:00,
2013-05-08 03:03:00,54.2,48.2,30.05,NE,52,0.0,0.0,80,0.01,,---,0.01,VWS V14.01,2013-05-08 10:03:00,
2013-05-08 03:08:00,54.2,48.2,30.05,NE,53,0.0,0.0,80,0.01,,---,0.01,VWS V14.01,2013-05-08 10:08:00,
2013-05-08 03:13:00,54.1,48.1,30.05,NE,52,0.0,0.0,80,0.01,,---,0.01,VWS V14.01,2013-05-08 10:13:00,
2013-05-08 03:15:00,54.1,48.1,30.05,NE,53,1.0,1.0,80,0.01,,---,0.01,VWS V14.01,2013-05-08 10:15:00,
2013-05-08 03:18:00,54.0,48.0,30.05,NE,53,2.0,3.0,80,0.01,,---,0.01,VWS V14.01,2013-05-08 10:18:00,
2013-05-08 03:23:00,53.9,48.2,30.05,NE,52,0.0,3.0,81,0.01,,---,0.01,VWS V14.01,2013-05-08 10:23:00,
2013-05-08 03:28:00,53.8,48.1,30.05,NE,53,0.0,3.0,81,0.01,,---,0.01,VWS V14.01,2013-05-08 10:28:00,
2013-05-08 03:30:00,53.8,48.1,30.05,NE,53,0.0,3.0,81,0.01,,---,0.01,VWS V14.01,2013-05-08 10:30:00,
2013-05-08 03:33:00,53.8,48.1,30.05,NE,52,0.0,3.0,81,0.01,,---,0.01,VWS V14.01,2013-05-08 10:33:00,
2013-05-08 03:38:00,53.7,48.3,30.05,NE,52,0.0,3.0,82,0.01,,---,0.01,VWS V14.01,2013-05-08 10:38:00,
2013-05-08 03:43:00,53.7,48.3,30.05,NE,52,0.0,3.0,82,0.01,,---,0.01,VWS V14.01,2013-05-08 10:43:00,
2013-05-08 03:45:00,53.7,48.3,30.05,NE,52,0.0,3.0,82,0.01,,---,0.01,VWS V14.01,2013-05-08 10:45:00,
2013-05-08 03:48:00,53.7,48.3,30.05,NE,52,0.0,0.0,82,0.01,,---,0.01,VWS V14.01,2013-05-08 10:48:00,
2013-05-08 03:53:00,53.6,48.2,30.05,NE,53,0.0,0.0,82,0.01,,---,0.01,VWS V14.01,2013-05-08 10:53:00,
2013-05-08 03:58:00,53.5,48.5,30.05,NE,53,0.0,0.0,83,0.01,,---,0.01,VWS V14.01,2013-05-08 10:58:00,
2013-05-08 04:00:00,53.4,48.4,30.05,NE,52,0.0,0.0,83,0.01,,---,0.01,VWS V14.01,2013-05-08 11:00:00,
2013-05-08 04:03:00,53.4,48.4,30.05,NE,52,0.0,0.0,83,0.00,,---,0.01,VWS V14.01,2013-05-08 11:03:00,
2013-05-08 04:08:00,53.3,48.3,30.05,NE,53,0.0,2.0,83,0.00,,---,0.01,VWS V14.01,2013-05-08 11:08:00,
2013-05-08 04:13:00,53.1,48.1,30.05,NE,52,0.0,2.0,83,0.00,,---,0.01,VWS V14.01,2013-05-08 11:13:00,
2013-05-08 04:15:00,53.1,48.1,30.05,NE,53,1.0,2.0,83,0.00,,---,0.01,VWS V14.01,2013-05-08 11:15:00,
2013-05-08 04:18:00,53.0,48.0,30.05,NE,52,0.0,2.0,83,0.00,,---,0.01,VWS V14.01,2013-05-08 11:18:00,
2013-05-08 04:23:00,53.0,48.0,30.05,NE,53,1.0,4.0,83,0.00,,---,0.01,VWS V14.01,2013-05-08 11:23:00,
2013-05-08 04:28:00,52.9,47.9,30.05,NE,55,3.0,5.0,83,0.00,,---,0.01,VWS V14.01,2013-05-08 11:28:00,
2013-05-08 04:30:00,52.9,47.9,30.05,NE,54,0.0,5.0,83,0.00,,---,0.01,VWS V14.01,2013-05-08 11:30:00,
2013-05-08 04:33:00,52.9,47.6,30.05,NE,53,0.0,4.0,82,0.00,,---,0.01,VWS V14.01,2013-05-08 11:33:00,
2013-05-08 04:38:00,53.0,47.7,30.05,NE,53,3.0,5.0,82,0.00,,---,0.01,VWS V14.01,2013-05-08 11:38:00,
2013-05-08 04:43:00,53.0,47.3,30.05,NE,53,0.0,5.0,81,0.00,,---,0.01,VWS V14.01,2013-05-08 11:43:00,
2013-05-08 04:45:00,53.0,47.3,30.05,NE,53,1.0,5.0,81,0.00,,---,0.01,VWS V14.01,2013-05-08 11:45:00,
2013-05-08 04:48:00,53.0,47.3,30.05,NE,53,0.0,2.0,81,0.00,,---,0.01,VWS V14.01,2013-05-08 11:48:00,
2013-05-08 04:53:00,52.9,47.2,30.05,NE,53,3.0,3.0,81,0.00,,---,0.01,VWS V14.01,2013-05-08 11:53:00,
2013-05-08 04:58:00,52.8,47.1,30.05,NE,53,2.0,4.0,81,0.00,,---,0.01,VWS V14.01,2013-05-08 11:58:00,
2013-05-08 05:00:00,52.7,47.0,30.04,NE,52,2.0,4.0,81,0.00,,---,0.01,VWS V14.01,2013-05-08 12:00:00,
2013-05-08 05:03:00,52.6,46.9,30.05,NE,53,2.0,4.0,81,0.00,,---,0.01,VWS V14.01,2013-05-08 12:03:00,
2013-05-08 05:08:00,52.5,46.8,30.05,NE,53,0.0,4.0,81,0.00,,---,0.01,VWS V14.01,2013-05-08 12:08:00,
2013-05-08 05:13:00,52.3,46.7,30.05,NE,53,0.0,4.0,81,0.00,,---,0.01,VWS V14.01,2013-05-08 12:13:00,
2013-05-08 05:15:00,52.2,46.5,30.05,NE,52,0.0,4.0,81,0.00,,---,0.01,VWS V14.01,2013-05-08 12:15:00,
2013-05-08 05:18:00,52.1,46.5,30.05,NE,53,0.0,0.0,81,0.00,,---,0.01,VWS V14.01,2013-05-08 12:18:00,
2013-05-08 05:23:00,51.9,46.3,30.05,NE,54,0.0,0.0,81,0.00,,---,0.01,VWS V14.01,2013-05-08 12:23:00,
2013-05-08 05:28:00,51.6,46.0,30.05,NE,53,0.0,0.0,81,0.00,,---,0.01,VWS V14.01,2013-05-08 12:28:00,
2013-05-08 05:30:00,51.5,45.9,30.05,NE,53,0.0,0.0,81,0.00,,---,0.01,VWS V14.01,2013-05-08 12:30:00,
2013-05-08 05:33:00,51.4,45.8,30.05,NE,53,0.0,3.0,81,0.00,,---,0.01,VWS V14.01,2013-05-08 12:33:00,
2013-05-08 05:39:00,51.3,45.7,30.06,NE,53,0.0,3.0,81,0.00,,---,0.01,VWS V14.01,2013-05-08 12:39:00,
2013-05-08 05:44:00,51.1,45.8,30.06,NE,54,0.0,3.0,82,0.00,,---,0.01,VWS V14.01,2013-05-08 12:44:00,
2013-05-08 05:45:00,51.0,45.4,30.06,NE,53,2.0,3.0,81,0.00,,---,0.01,VWS V14.01,2013-05-08 12:45:00,
2013-05-08 05:49:00,50.9,45.6,30.06,NE,53,1.0,3.0,82,0.00,,---,0.01,VWS V14.01,2013-05-08 12:49:00,
2013-05-08 05:54:00,50.8,45.5,30.06,NE,53,2.0,5.0,82,0.00,,---,0.01,VWS V14.01,2013-05-08 12:54:00,
2013-05-08 05:59:00,50.8,45.2,30.06,NE,52,0.0,6.0,81,0.00,,---,0.01,VWS V14.01,2013-05-08 12:59:00,
2013-05-08 06:00:00,50.8,45.2,30.06,NE,53,0.0,6.0,81,0.00,,---,0.01,VWS V14.01,2013-05-08 13:00:00,
2013-05-08 06:04:00,50.8,45.2,30.06,NE,53,3.0,4.0,81,0.00,,---,0.01,VWS V14.01,2013-05-08 13:04:00,
2013-05-08 06:09:00,50.9,45.3,30.06,NE,53,4.0,6.0,81,0.00,,---,0.01,VWS V14.01,2013-05-08 13:09:00,
2013-05-08 06:14:00,51.0,45.1,30.07,NE,55,3.0,6.0,80,0.00,,---,0.01,VWS V14.01,2013-05-08 13:14:00,
2013-05-08 06:15:00,51.1,45.2,30.07,NE,54,3.0,6.0,80,0.00,,---,0.01,VWS V14.01,2013-05-08 13:15:00,
2013-05-08 06:19:00,51.2,45.2,30.07,NE,53,3.0,4.0,80,0.00,,---,0.01,VWS V14.01,2013-05-08 13:19:00,
2013-05-08 06:24:00,51.5,45.2,30.07,NE,53,0.0,4.0,79,0.00,,---,0.01,VWS V14.01,2013-05-08 13:24:00,
2013-05-08 06:29:00,51.7,45.4,30.07,NE,55,0.0,4.0,79,0.00,,---,0.01,VWS V14.01,2013-05-08 13:29:00,
2013-05-08 06:30:00,51.8,45.5,30.07,NE,53,0.0,4.0,79,0.00,,---,0.01,VWS V14.01,2013-05-08 13:30:00,
2013-05-08 06:34:00,51.9,45.3,30.07,NE,53,0.0,3.0,78,0.00,,---,0.01,VWS V14.01,2013-05-08 13:34:00,
2013-05-08 06:39:00,52.3,45.7,30.07,NE,53,3.0,5.0,78,0.00,,---,0.01,VWS V14.01,2013-05-08 13:39:00,
2013-05-08 06:44:00,52.6,45.3,30.07,NE,54,5.0,5.0,76,0.00,,---,0.01,VWS V14.01,2013-05-08 13:44:00,
2013-05-08 06:45:00,52.7,45.4,30.07,NE,53,0.0,5.0,76,0.00,,---,0.01,VWS V14.01,2013-05-08 13:45:00,
2013-05-08 06:49:00,52.9,45.2,30.07,NE,55,5.0,6.0,75,0.00,,---,0.01,VWS V14.01,2013-05-08 13:49:00,
2013-05-08 06:54:00,53.1,45.4,30.07,NE,55,2.0,6.0,75,0.00,,---,0.01,VWS V14.01,2013-05-08 13:54:00,
2013-05-08 06:59:00,53.3,45.2,30.07,NE,55,4.0,6.0,74,0.00,,---,0.01,VWS V14.01,2013-05-08 13:59:00,
2013-05-08 07:00:00,53.4,45.3,30.07,NE,55,4.0,6.0,74,0.00,,---,0.01,VWS V14.01,2013-05-08 14:00:00,
2013-05-08 07:04:00,53.5,45.4,30.07,NE,53,4.0,6.0,74,0.00,,---,0.01,VWS V14.01,2013-05-08 14:04:00,
2013-05-08 07:09:00,53.6,45.2,30.07,NE,51,4.0,6.0,73,0.00,,---,0.01,VWS V14.01,2013-05-08 14:09:00,
2013-05-08 07:14:00,53.8,45.4,30.07,NE,53,0.0,6.0,73,0.00,,---,0.01,VWS V14.01,2013-05-08 14:14:00,
2013-05-08 07:15:00,53.9,45.5,30.07,NE,53,0.0,6.0,73,0.00,,---,0.01,VWS V14.01,2013-05-08 14:15:00,
2013-05-08 07:19:00,54.0,45.5,30.07,NE,53,0.0,3.0,73,0.00,,---,0.01,VWS V14.01,2013-05-08 14:19:00,
2013-05-08 07:24:00,54.2,45.8,30.07,NE,53,0.0,3.0,73,0.00,,---,0.01,VWS V14.01,2013-05-08 14:24:00,
2013-05-08 07:29:00,54.5,46.4,30.07,NE,52,2.0,3.0,74,0.00,,---,0.01,VWS V14.01,2013-05-08 14:29:00,
2013-05-08 07:30:00,54.6,46.5,30.07,NE,53,1.0,3.0,74,0.00,,---,0.01,VWS V14.01,2013-05-08 14:30:00,
2013-05-08 07:34:00,54.8,46.7,30.07,NE,53,0.0,4.0,74,0.00,,---,0.01,VWS V14.01,2013-05-08 14:34:00,
2013-05-08 07:39:00,55.0,46.5,30.07,NE,53,0.0,4.0,73,0.00,,---,0.01,VWS V14.01,2013-05-08 14:39:00,
2013-05-08 07:44:00,55.2,46.7,30.07,NE,52,0.0,4.0,73,0.00,,---,0.01,VWS V14.01,2013-05-08 14:44:00,
2013-05-08 07:45:00,55.3,46.4,30.07,NE,53,0.0,4.0,72,0.00,,---,0.01,VWS V14.01,2013-05-08 14:45:00,
2013-05-08 07:49:00,55.5,47.0,30.07,NE,53,0.0,0.0,73,0.00,,---,0.01,VWS V14.01,2013-05-08 14:49:00,
2013-05-08 07:54:00,55.8,47.3,30.07,NE,53,0.0,0.0,73,0.00,,---,0.01,VWS V14.01,2013-05-08 14:54:00,
2013-05-08 07:59:00,56.1,47.2,30.07,NE,53,0.0,2.0,72,0.00,,---,0.01,VWS V14.01,2013-05-08 14:59:00,
2013-05-08 08:00:00,56.2,47.3,30.07,NE,53,0.0,2.0,72,0.00,,---,0.01,VWS V14.01,2013-05-08 15:00:00,
2013-05-08 08:04:00,56.4,47.1,30.07,NE,53,0.0,1.0,71,0.00,,---,0.01,VWS V14.01,2013-05-08 15:04:00,
2013-05-08 08:09:00,56.7,47.0,30.07,NE,53,0.0,1.0,70,0.00,,---,0.01,VWS V14.01,2013-05-08 15:09:00,
2013-05-08 08:14:00,57.0,47.3,30.07,NE,52,0.0,2.0,70,0.00,,---,0.01,VWS V14.01,2013-05-08 15:14:00,
2013-05-08 08:15:00,57.1,47.4,30.07,NE,53,0.0,2.0,70,0.00,,---,0.01,VWS V14.01,2013-05-08 15:15:00,
2013-05-08 08:19:00,57.4,47.3,30.07,NE,53,0.0,0.0,69,0.00,,---,0.01,VWS V14.01,2013-05-08 15:19:00,
2013-05-08 08:24:00,57.8,48.5,30.07,NE,53,0.0,0.0,71,0.00,,---,0.01,VWS V14.01,2013-05-08 15:24:00,
2013-05-08 08:29:00,58.2,48.5,30.07,NE,53,0.0,0.0,70,0.00,,---,0.01,VWS V14.01,2013-05-08 15:29:00,
2013-05-08 08:30:00,58.3,49.0,30.07,NE,53,0.0,0.0,71,0.00,,---,0.01,VWS V14.01,2013-05-08 15:30:00,
2013-05-08 08:34:00,58.6,48.9,30.07,NE,53,0.0,1.0,70,0.00,,---,0.01,VWS V14.01,2013-05-08 15:34:00,
2013-05-08 08:39:00,59.0,48.9,30.07,NE,51,0.0,3.0,69,0.00,,---,0.01,VWS V14.01,2013-05-08 15:39:00,
2013-05-08 08:44:00,59.4,49.2,30.07,West,260,2.0,5.0,69,0.00,,---,0.01,VWS V14.01,2013-05-08 15:44:00,
2013-05-08 08:45:00,59.5,49.7,30.07,West,266,3.0,5.0,70,0.00,,---,0.01,VWS V14.01,2013-05-08 15:45:00,
2013-05-08 08:49:00,59.7,49.1,30.07,NW,305,4.0,5.0,68,0.00,,---,0.01,VWS V14.01,2013-05-08 15:49:00,
2013-05-08 08:54:00,60.0,48.6,30.07,WNW,290,0.0,5.0,66,0.00,,---,0.01,VWS V14.01,2013-05-08 15:54:00,
2013-05-08 08:59:00,60.4,50.2,30.07,SSW,203,3.0,5.0,69,0.00,,---,0.01,VWS V14.01,2013-05-08 15:59:00,
2013-05-08 09:00:00,60.5,50.7,30.07,SSW,205,3.0,5.0,70,0.00,,---,0.01,VWS V14.01,2013-05-08 16:00:00,
2013-05-08 09:04:00,60.8,50.6,30.07,West,272,0.0,5.0,69,0.00,,---,0.01,VWS V14.01,2013-05-08 16:04:00,
2013-05-08 09:09:00,61.4,50.8,30.07,West,263,3.0,7.0,68,0.00,,---,0.01,VWS V14.01,2013-05-08 16:09:00,
2013-05-08 09:14:00,61.8,50.7,30.07,West,259,2.0,9.0,67,0.00,,---,0.01,VWS V14.01,2013-05-08 16:14:00,
2013-05-08 09:15:00,61.8,50.7,30.07,West,259,0.0,9.0,67,0.00,,---,0.01,VWS V14.01,2013-05-08 16:15:00,
2013-05-08 09:19:00,62.1,51.0,30.07,West,263,0.0,9.0,67,0.00,,---,0.01,VWS V14.01,2013-05-08 16:19:00,
2013-05-08 09:24:00,62.3,50.8,30.07,SW,230,0.0,9.0,66,0.00,,---,0.01,VWS V14.01,2013-05-08 16:24:00,
2013-05-08 09:29:00,62.7,51.6,30.07,West,269,5.0,9.0,67,0.00,,---,0.01,VWS V14.01,2013-05-08 16:29:00,
2013-05-08 09:30:00,62.7,51.2,30.07,West,266,7.0,9.0,66,0.00,,---,0.01,VWS V14.01,2013-05-08 16:30:00,
2013-05-08 09:34:00,63.0,51.9,30.07,SW,225,5.0,7.0,67,0.00,,---,0.01,VWS V14.01,2013-05-08 16:34:00,
2013-05-08 09:39:00,63.3,51.8,30.07,West,265,3.0,9.0,66,0.00,,---,0.01,VWS V14.01,2013-05-08 16:39:00,
2013-05-08 09:45:00,63.3,51.3,30.07,WSW,245,2.0,9.0,65,0.00,,---,0.01,VWS V14.01,2013-05-08 16:45:00,
2013-05-08 09:50:00,63.4,51.0,30.07,SW,221,0.0,7.0,64,0.00,,---,0.01,VWS V14.01,2013-05-08 16:50:00,
2013-05-08 09:55:00,63.9,52.3,30.07,WSW,244,4.0,8.0,66,0.00,,---,0.01,VWS V14.01,2013-05-08 16:55:00,
2013-05-08 10:00:00,64.0,51.2,30.07,SSW,200,0.0,8.0,63,0.00,,---,0.01,VWS V14.01,2013-05-08 17:00:00,
2013-05-08 10:05:00,63.9,52.3,30.07,SW,227,5.0,6.0,66,0.00,,---,0.01,VWS V14.01,2013-05-08 17:05:00,
2013-05-08 10:10:00,64.2,52.6,30.07,WSW,255,3.0,7.0,66,0.00,,---,0.01,VWS V14.01,2013-05-08 17:10:00,
2013-05-08 10:15:00,64.5,52.1,30.07,WSW,252,3.0,9.0,64,0.00,,---,0.01,VWS V14.01,2013-05-08 17:15:00,
2013-05-08 10:20:00,64.7,51.8,30.07,West,265,4.0,7.0,63,0.00,,---,0.01,VWS V14.01,2013-05-08 17:20:00,
2013-05-08 10:25:00,64.8,51.5,30.07,West,267,5.0,7.0,62,0.00,,---,0.01,VWS V14.01,2013-05-08 17:25:00,
2013-05-08 10:30:00,64.5,51.6,30.07,West,267,5.0,9.0,63,0.00,,---,0.01,VWS V14.01,2013-05-08 17:30:00,
2013-05-08 10:35:00,63.9,52.3,30.07,WSW,240,6.0,11.0,66,0.00,,---,0.01,VWS V14.01,2013-05-08 17:35:00,
2013-05-08 10:40:00,63.4,52.7,30.07,SW,221,2.0,11.0,68,0.00,,---,0.01,VWS V14.01,2013-05-08 17:40:00,
2013-05-08 10:45:00,63.3,51.8,30.08,West,260,3.0,11.0,66,0.00,,---,0.01,VWS V14.01,2013-05-08 17:45:00,
2013-05-08 10:50:00,63.4,52.7,30.08,West,277,3.0,8.0,68,0.00,,---,0.01,VWS V14.01,2013-05-08 17:50:00,
2013-05-08 10:55:00,63.8,53.0,30.07,South,182,1.0,8.0,68,0.00,,---,0.01,VWS V14.01,2013-05-08 17:55:00,
2013-05-08 11:00:00,64.0,52.0,30.07,SSW,201,6.0,8.0,65,0.00,,---,0.01,VWS V14.01,2013-05-08 18:00:00,
2013-05-08 11:05:00,63.8,52.7,30.07,SW,232,1.0,7.0,67,0.00,,---,0.01,VWS V14.01,2013-05-08 18:05:00,
2013-05-08 11:10:00,63.7,52.1,30.07,West,263,3.0,7.0,66,0.00,,---,0.01,VWS V14.01,2013-05-08 18:10:00,
2013-05-08 11:15:00,63.5,51.5,30.07,WSW,257,0.0,7.0,65,0.01,,---,0.02,VWS V14.01,2013-05-08 18:15:00,
2013-05-08 11:20:00,63.5,51.1,30.07,WSW,238,2.0,4.0,64,0.01,,---,0.02,VWS V14.01,2013-05-08 18:20:00,
2013-05-08 11:25:00,63.4,51.4,30.07,WSW,240,0.0,4.0,65,0.01,,---,0.02,VWS V14.01,2013-05-08 18:25:00,
2013-05-08 11:30:00,63.3,51.8,30.07,SW,235,0.0,5.0,66,0.01,,---,0.02,VWS V14.01,2013-05-08 18:30:00,
2013-05-08 11:35:00,63.3,53.0,30.07,WSW,257,3.0,7.0,69,0.01,,---,0.02,VWS V14.01,2013-05-08 18:35:00,
2013-05-08 11:40:00,63.0,52.7,30.06,West,261,4.0,9.0,69,0.01,,---,0.02,VWS V14.01,2013-05-08 18:40:00,
2013-05-08 11:45:00,62.6,52.7,30.07,WSW,253,4.0,9.0,70,0.01,,---,0.02,VWS V14.01,2013-05-08 18:45:00,
2013-05-08 11:50:00,62.4,52.9,30.06,WSW,245,3.0,6.0,71,0.01,,---,0.02,VWS V14.01,2013-05-08 18:50:00,
2013-05-08 11:55:00,62.4,52.9,30.06,WSW,250,2.0,6.0,71,0.01,,---,0.02,VWS V14.01,2013-05-08 18:55:00,
2013-05-08 12:00:00,62.6,53.1,30.06,West,263,1.0,6.0,71,0.01,,---,0.02,VWS V14.01,2013-05-08 19:00:00,
2013-05-08 12:05:00,62.9,53.8,30.06,SSW,211,4.0,5.0,72,0.01,,---,0.02,VWS V14.01,2013-05-08 19:05:00,
2013-05-08 12:10:00,63.0,53.5,30.06,West,265,8.0,11.0,71,0.01,,---,0.02,VWS V14.01,2013-05-08 19:10:00,
2013-05-08 12:15:00,62.8,53.3,30.06,WSW,251,4.0,11.0,71,0.01,,---,0.02,VWS V14.01,2013-05-08 19:15:00,
2013-05-08 12:20:00,62.7,53.2,30.06,WSW,242,4.0,10.0,71,0.00,,---,0.02,VWS V14.01,2013-05-08 19:20:00,
2013-05-08 12:25:00,62.5,53.0,30.06,WSW,239,7.0,10.0,71,0.00,,---,0.02,VWS V14.01,2013-05-08 19:25:00,
2013-05-08 12:30:00,62.3,53.2,30.06,WSW,242,4.0,10.0,72,0.00,,---,0.02,VWS V14.01,2013-05-08 19:30:00,
2013-05-08 12:35:00,62.3,53.2,30.06,NW,310,5.0,8.0,72,0.00,,---,0.02,VWS V14.01,2013-05-08 19:35:00,
2013-05-08 12:40:00,62.2,52.7,30.06,South,183,9.0,10.0,71,0.00,,---,0.02,VWS V14.01,2013-05-08 19:40:00,
2013-05-08 12:45:00,62.2,53.1,30.06,West,263,2.0,10.0,72,0.00,,---,0.02,VWS V14.01,2013-05-08 19:45:00,
2013-05-08 12:50:00,62.2,53.5,30.06,West,262,0.0,7.0,73,0.00,,---,0.02,VWS V14.01,2013-05-08 19:50:00,
2013-05-08 12:55:00,62.3,53.2,30.06,WSW,248,4.0,7.0,72,0.00,,---,0.02,VWS V14.01,2013-05-08 19:55:00,
2013-05-08 13:00:00,62.5,53.4,30.06,West,261,4.0,8.0,72,0.00,,---,0.02,VWS V14.01,2013-05-08 20:00:00,
2013-05-08 13:05:00,62.6,53.1,30.06,WSW,240,5.0,9.0,71,0.00,,---,0.02,VWS V14.01,2013-05-08 20:05:00,
2013-05-08 13:10:00,62.6,53.1,30.06,SW,228,5.0,11.0,71,0.00,,---,0.02,VWS V14.01,2013-05-08 20:10:00,
2013-05-08 13:15:00,62.4,52.9,30.06,West,271,8.0,8.0,71,0.00,,---,0.02,VWS V14.01,2013-05-08 20:15:00,
2013-05-08 13:20:00,62.2,51.9,30.07,West,265,5.0,9.0,69,0.00,,---,0.02,VWS V14.01,2013-05-08 20:20:00,
2013-05-08 13:25:00,62.2,52.3,30.07,WSW,243,4.0,9.0,70,0.00,,---,0.02,VWS V14.01,2013-05-08 20:25:00,
2013-05-08 13:30:00,62.0,51.7,30.07,WNW,289,0.0,2.0,69,0.00,,---,0.02,VWS V14.01,2013-05-08 20:30:00,
2013-05-08 13:35:00,61.9,51.2,30.07,WSW,252,1.0,6.0,68,0.00,,---,0.02,VWS V14.01,2013-05-08 20:35:00,
2013-05-08 13:41:00,61.8,50.7,30.07,NW,315,0.0,6.0,67,0.00,,---,0.02,VWS V14.01,2013-05-08 20:41:00,
2013-05-08 13:45:00,61.7,50.7,30.07,SW,232,2.0,7.0,67,0.00,,---,0.02,VWS V14.01,2013-05-08 20:45:00,
2013-05-08 13:46:00,61.7,50.6,30.07,WSW,245,1.0,3.0,67,0.00,,---,0.02,VWS V14.01,2013-05-08 20:46:00,
2013-05-08 13:51:00,61.5,50.0,30.07,West,261,0.0,5.0,66,0.00,,---,0.02,VWS V14.01,2013-05-08 20:51:00,
2013-05-08 13:56:00,61.4,50.0,30.07,WSW,244,0.0,5.0,66,0.00,,---,0.02,VWS V14.01,2013-05-08 20:56:00,
2013-05-08 14:00:00,61.3,50.3,30.08,WSW,242,0.0,5.0,67,0.00,,---,0.02,VWS V14.01,2013-05-08 21:00:00,
2013-05-08 14:01:00,61.3,50.3,30.08,WSW,243,1.0,2.0,67,0.00,,---,0.02,VWS V14.01,2013-05-08 21:01:00,
2013-05-08 14:06:00,61.2,50.2,30.07,West,259,4.0,5.0,67,0.00,,---,0.02,VWS V14.01,2013-05-08 21:06:00,
2013-05-08 14:11:00,61.2,50.2,30.08,SW,232,3.0,5.0,67,0.00,,---,0.02,VWS V14.01,2013-05-08 21:11:00,
2013-05-08 14:15:00,61.2,49.8,30.08,SW,232,0.0,5.0,66,0.00,,---,0.02,VWS V14.01,2013-05-08 21:15:00,
2013-05-08 14:16:00,61.2,49.8,30.08,SW,232,0.0,0.0,66,0.00,,---,0.02,VWS V14.01,2013-05-08 21:16:00,
2013-05-08 14:21:00,61.2,50.2,30.08,WSW,248,0.0,4.0,67,0.00,,---,0.02,VWS V14.01,2013-05-08 21:21:00,
2013-05-08 14:26:00,61.3,49.9,30.08,West,276,0.0,4.0,66,0.00,,---,0.02,VWS V14.01,2013-05-08 21:26:00,
2013-05-08 14:30:00,61.3,49.9,30.08,WSW,253,4.0,4.0,66,0.00,,---,0.02,VWS V14.01,2013-05-08 21:30:00,
2013-05-08 14:31:00,61.3,49.9,30.08,SW,229,4.0,4.0,66,0.00,,---,0.02,VWS V14.01,2013-05-08 21:31:00,
2013-05-08 14:36:00,61.3,50.3,30.08,South,188,0.0,4.0,67,0.00,,---,0.02,VWS V14.01,2013-05-08 21:36:00,
2013-05-08 14:41:00,61.2,51.0,30.08,SSW,202,2.0,7.0,69,0.00,,---,0.02,VWS V14.01,2013-05-08 21:41:00,
2013-05-08 14:45:00,61.1,50.9,30.08,SSW,198,2.0,8.0,69,0.00,,---,0.02,VWS V14.01,2013-05-08 21:45:00,
2013-05-08 14:46:00,61.1,50.9,30.08,SSW,206,3.0,4.0,69,0.00,,---,0.02,VWS V14.01,2013-05-08 21:46:00,
2013-05-08 14:51:00,60.9,51.1,30.08,WSW,237,5.0,7.0,70,0.00,,---,0.02,VWS V14.01,2013-05-08 21:51:00,
2013-05-08 14:56:00,60.8,51.0,30.08,SSE,168,1.0,7.0,70,0.00,,---,0.02,VWS V14.01,2013-05-08 21:56:00,
2013-05-08 15:00:00,60.7,51.2,30.08,SW,225,2.0,7.0,71,0.00,,---,0.02,VWS V14.01,2013-05-08 22:00:00,
2013-05-08 15:01:00,60.7,51.2,30.07,SW,220,3.0,3.0,71,0.00,,---,0.02,VWS V14.01,2013-05-08 22:01:00,
2013-05-08 15:06:00,60.5,51.1,30.07,SSW,213,2.0,7.0,71,0.00,,---,0.02,VWS V14.01,2013-05-08 22:06:00,
2013-05-08 15:11:00,60.3,50.9,30.08,SW,214,0.0,7.0,71,0.00,,---,0.02,VWS V14.01,2013-05-08 22:11:00,
2013-05-08 15:15:00,60.3,51.6,30.07,WSW,240,2.0,9.0,73,0.00,,---,0.02,VWS V14.01,2013-05-08 22:15:00,
2013-05-08 15:16:00,60.3,51.6,30.08,WSW,245,3.0,3.0,73,0.00,,---,0.02,VWS V14.01,2013-05-08 22:16:00,
2013-05-08 15:21:00,60.4,51.7,30.07,West,261,9.0,9.0,73,0.00,,---,0.02,VWS V14.01,2013-05-08 22:21:00,
2013-05-08 15:26:00,60.6,52.3,30.07,WSW,249,3.0,9.0,74,0.00,,---,0.02,VWS V14.01,2013-05-08 22:26:00,
2013-05-08 15:30:00,60.7,52.4,30.07,WSW,249,0.0,9.0,74,0.00,,---,0.02,VWS V14.01,2013-05-08 22:30:00,
2013-05-08 15:31:00,60.7,52.4,30.07,WSW,248,0.0,0.0,74,0.00,,---,0.02,VWS V14.01,2013-05-08 22:31:00,
2013-05-08 15:36:00,60.7,52.4,30.07,WSW,248,0.0,0.0,74,0.00,,---,0.02,VWS V14.01,2013-05-08 22:36:00,
2013-05-08 15:41:00,60.6,51.9,30.07,WSW,246,0.0,3.0,73,0.00,,---,0.02,VWS V14.01,2013-05-08 22:41:00,
2013-05-08 15:45:00,60.5,51.8,30.07,WSW,254,0.0,3.0,73,0.00,,---,0.02,VWS V14.01,2013-05-08 22:45:00,
2013-05-08 15:46:00,60.4,52.1,30.07,WSW,253,0.0,0.0,74,0.00,,---,0.02,VWS V14.01,2013-05-08 22:46:00,
2013-05-08 15:51:00,60.4,51.7,30.07,WSW,253,0.0,0.0,73,0.00,,---,0.02,VWS V14.01,2013-05-08 22:51:00,
2013-05-08 15:56:00,60.5,52.2,30.06,West,263,0.0,0.0,74,0.00,,---,0.02,VWS V14.01,2013-05-08 22:56:00,
2013-05-08 16:00:00,60.7,52.0,30.06,NW,323,0.0,4.0,73,0.00,,---,0.02,VWS V14.01,2013-05-08 23:00:00,
2013-05-08 16:01:00,60.7,52.0,30.06,NW,323,3.0,3.0,73,0.00,,---,0.02,VWS V14.01,2013-05-08 23:01:00,
2013-05-08 16:06:00,60.8,51.3,30.06,West,272,0.0,5.0,71,0.00,,---,0.02,VWS V14.01,2013-05-08 23:06:00,
2013-05-08 16:11:00,61.2,52.1,30.06,NNE,14,0.0,5.0,72,0.00,,---,0.02,VWS V14.01,2013-05-08 23:11:00,
2013-05-08 16:15:00,61.8,52.7,30.06,North,11,0.0,5.0,72,0.00,,---,0.02,VWS V14.01,2013-05-08 23:15:00,
2013-05-08 16:16:00,62.0,52.9,30.06,North,9,2.0,2.0,72,0.00,,---,0.02,VWS V14.01,2013-05-08 23:16:00,
2013-05-08 16:21:00,63.2,52.5,30.06,West,262,0.0,5.0,68,0.00,,---,0.02,VWS V14.01,2013-05-08 23:21:00,
2013-05-08 16:26:00,64.1,52.5,30.06,WSW,256,4.0,6.0,66,0.00,,---,0.02,VWS V14.01,2013-05-08 23:26:00,
2013-05-08 16:30:00,64.3,51.9,30.05,WSW,255,0.0,7.0,64,0.00,,---,0.02,VWS V14.01,2013-05-08 23:30:00,
2013-05-08 16:31:00,64.3,51.5,30.06,WSW,257,1.0,2.0,63,0.00,,---,0.02,VWS V14.01,2013-05-08 23:31:00,
2013-05-08 16:36:00,64.3,51.5,30.05,WNW,291,0.0,6.0,63,0.00,,---,0.02,VWS V14.01,2013-05-08 23:36:00,
2013-05-08 16:41:00,64.3,52.3,30.06,WNW,287,4.0,6.0,65,0.00,,---,0.02,VWS V14.01,2013-05-08 23:41:00,
2013-05-08 16:45:00,64.2,51.4,30.06,WSW,254,0.0,6.0,63,0.00,,---,0.02,VWS V14.01,2013-05-08 23:45:00,
2013-05-08 16:46:00,64.2,51.8,30.06,NW,321,5.0,5.0,64,0.00,,---,0.02,VWS V14.01,2013-05-08 23:46:00,
2013-05-08 16:51:00,63.7,50.0,30.06,West,271,4.0,7.0,61,0.00,,---,0.02,VWS V14.01,2013-05-08 23:51:00,
2013-05-08 16:56:00,63.3,50.5,30.06,WNW,282,2.0,9.0,63,0.00,,---,0.02,VWS V14.01,2013-05-08 23:56:00,
2013-05-08 17:00:00,63.0,49.3,30.06,WSW,254,4.0,9.0,61,0.00,,---,0.02,VWS V14.01,2013-05-09 00:00:00,
2013-05-08 17:01:00,62.9,49.7,30.06,WSW,256,1.0,4.0,62,0.00,,---,0.02,VWS V14.01,2013-05-09 00:01:00,
2013-05-08 17:06:00,62.7,49.5,30.06,West,262,5.0,6.0,62,0.00,,---,0.02,VWS V14.01,2013-05-09 00:06:00,
2013-05-08 17:11:00,62.8,50.5,30.06,WSW,252,4.0,6.0,64,0.00,,---,0.02,VWS V14.01,2013-05-09 00:11:00,
2013-05-08 17:15:00,62.9,50.5,30.06,West,263,6.0,6.0,64,0.00,,---,0.02,VWS V14.01,2013-05-09 00:15:00,
2013-05-08 17:16:00,62.9,49.7,30.06,SW,215,5.0,9.0,62,0.00,,---,0.02,VWS V14.01,2013-05-09 00:16:00,
2013-05-08 17:22:00,62.8,50.0,30.06,WSW,237,0.0,10.0,63,0.00,,---,0.02,VWS V14.01,2013-05-09 00:22:00,
2013-05-08 17:27:00,62.6,49.4,30.06,WSW,253,2.0,10.0,62,0.00,,---,0.02,VWS V14.01,2013-05-09 00:27:00,
2013-05-08 17:30:00,62.5,50.2,30.06,WSW,246,0.0,10.0,64,0.00,,---,0.02,VWS V14.01,2013-05-09 00:30:00,
2013-05-08 17:32:00,62.5,49.8,30.06,NW,311,4.0,6.0,63,0.00,,---,0.02,VWS V14.01,2013-05-09 00:32:00,
2013-05-08 17:37:00,62.7,49.9,30.06,NW,307,3.0,6.0,63,0.00,,---,0.02,VWS V14.01,2013-05-09 00:37:00,
2013-05-08 17:42:00,62.9,50.1,30.06,West,259,4.0,11.0,63,0.00,,---,0.02,VWS V14.01,2013-05-09 00:42:00,
2013-05-08 17:45:00,62.8,49.2,30.06,WNW,302,0.0,11.0,61,0.00,,---,0.02,VWS V14.01,2013-05-09 00:45:00,
2013-05-08 17:47:00,62.8,49.2,30.06,NNW,327,0.0,5.0,61,0.00,,---,0.02,VWS V14.01,2013-05-09 00:47:00,
2013-05-08 17:52:00,62.9,49.7,30.05,West,280,2.0,6.0,62,0.00,,---,0.02,VWS V14.01,2013-05-09 00:52:00,
2013-05-08 17:57:00,63.0,49.8,30.05,SW,236,3.0,6.0,62,0.00,,---,0.02,VWS V14.01,2013-05-09 00:57:00,
2013-05-08 18:00:00,62.9,49.7,30.05,WSW,249,1.0,6.0,62,0.00,,---,0.02,VWS V14.01,2013-05-09 01:00:00,
2013-05-08 18:02:00,62.9,49.3,30.05,West,268,0.0,3.0,61,0.00,,---,0.02,VWS V14.01,2013-05-09 01:02:00,
2013-05-08 18:07:00,62.9,49.7,30.05,West,265,0.0,5.0,62,0.00,,---,0.02,VWS V14.01,2013-05-09 01:07:00,
2013-05-08 18:12:00,62.8,49.2,30.05,WSW,242,2.0,7.0,61,0.00,,---,0.02,VWS V14.01,2013-05-09 01:12:00,
2013-05-08 18:15:00,62.7,49.5,30.05,WSW,251,5.0,9.0,62,0.00,,---,0.02,VWS V14.01,2013-05-09 01:15:00,
2013-05-08 18:17:00,62.6,49.4,30.05,SW,236,3.0,6.0,62,0.00,,---,0.02,VWS V14.01,2013-05-09 01:17:00,
2013-05-08 18:22:00,62.5,48.9,30.05,SW,231,5.0,6.0,61,0.00,,---,0.02,VWS V14.01,2013-05-09 01:22:00,
2013-05-08 18:27:00,62.3,47.8,30.05,WNW,299,2.0,9.0,59,0.00,,---,0.02,VWS V14.01,2013-05-09 01:27:00,
2013-05-08 18:30:00,62.2,48.2,30.05,West,275,5.0,9.0,60,0.00,,---,0.02,VWS V14.01,2013-05-09 01:30:00,
2013-05-08 18:32:00,62.1,48.1,30.05,WNW,292,3.0,6.0,60,0.00,,---,0.02,VWS V14.01,2013-05-09 01:32:00,
2013-05-08 18:37:00,61.9,48.3,30.05,West,270,3.0,9.0,61,0.00,,---,0.02,VWS V14.01,2013-05-09 01:37:00,
2013-05-08 18:42:00,61.7,48.1,30.05,WNW,290,3.0,9.0,61,0.00,,---,0.02,VWS V14.01,2013-05-09 01:42:00,
2013-05-08 18:45:00,61.5,47.9,30.05,WSW,257,1.0,9.0,61,0.00,,---,0.02,VWS V14.01,2013-05-09 01:45:00,
2013-05-08 18:47:00,61.4,47.8,30.05,West,259,4.0,6.0,61,0.00,,---,0.02,VWS V14.01,2013-05-09 01:47:00,
2013-05-08 18:52:00,61.2,47.7,30.05,West,271,1.0,6.0,61,0.00,,---,0.02,VWS V14.01,2013-05-09 01:52:00,
2013-05-08 18:57:00,61.0,47.0,30.05,WNW,302,0.0,6.0,60,0.00,,---,0.02,VWS V14.01,2013-05-09 01:57:00,
2013-05-08 19:00:00,60.9,47.4,30.05,West,261,3.0,6.0,61,0.00,,---,0.02,VWS V14.01,2013-05-09 02:00:00,
2013-05-08 19:02:00,60.9,47.4,30.05,NW,321,2.0,4.0,61,0.00,,---,0.02,VWS V14.01,2013-05-09 02:02:00,
2013-05-08 19:07:00,60.7,47.2,30.05,West,264,2.0,4.0,61,0.00,,---,0.02,VWS V14.01,2013-05-09 02:07:00,
2013-05-08 19:12:00,60.5,47.4,30.05,West,268,4.0,4.0,62,0.00,,---,0.02,VWS V14.01,2013-05-09 02:12:00,
2013-05-08 19:15:00,60.4,47.3,30.05,WNW,288,3.0,4.0,62,0.00,,---,0.02,VWS V14.01,2013-05-09 02:15:00,
2013-05-08 19:17:00,60.3,47.2,30.05,WNW,289,3.0,3.0,62,0.00,,---,0.02,VWS V14.01,2013-05-09 02:17:00,
2013-05-08 19:22:00,60.0,47.4,30.05,West,260,0.0,4.0,63,0.00,,---,0.02,VWS V14.01,2013-05-09 02:22:00,
2013-05-08 19:27:00,59.7,47.1,30.05,WNW,284,1.0,4.0,63,0.00,,---,0.02,VWS V14.01,2013-05-09 02:27:00,
2013-05-08 19:32:00,59.5,46.9,30.05,WNW,300,0.0,2.0,63,0.00,,---,0.02,VWS V14.01,2013-05-09 02:32:00,
2013-05-08 19:37:00,59.3,46.7,30.05,West,271,0.0,5.0,63,0.00,,---,0.02,VWS V14.01,2013-05-09 02:37:00,
2013-05-08 19:42:00,59.1,47.0,30.05,West,270,1.0,5.0,64,0.00,,---,0.02,VWS V14.01,2013-05-09 02:42:00,
2013-05-08 19:45:00,59.0,46.8,30.05,WNW,286,2.0,5.0,64,0.00,,---,0.02,VWS V14.01,2013-05-09 02:45:00,
2013-05-08 19:47:00,59.0,46.8,30.06,WNW,286,2.0,2.0,64,0.00,,---,0.02,VWS V14.01,2013-05-09 02:47:00,
2013-05-08 19:52:00,59.0,47.3,30.06,WNW,291,0.0,3.0,65,0.00,,---,0.02,VWS V14.01,2013-05-09 02:52:00,
2013-05-08 19:57:00,59.0,47.3,30.06,WNW,292,0.0,3.0,65,0.00,,---,0.02,VWS V14.01,2013-05-09 02:57:00,
2013-05-08 20:00:00,58.8,47.5,30.06,NW,310,0.0,4.0,66,0.00,,---,0.02,VWS V14.01,2013-05-09 03:00:00,
2013-05-08 20:02:00,58.8,47.5,30.05,NW,311,0.0,1.0,66,0.00,,---,0.02,VWS V14.01,2013-05-09 03:02:00,
2013-05-08 20:07:00,58.6,47.3,30.05,NW,311,0.0,2.0,66,0.00,,---,0.02,VWS V14.01,2013-05-09 03:07:00,
2013-05-08 20:12:00,58.5,47.6,30.05,NW,310,0.0,4.0,67,0.00,,---,0.02,VWS V14.01,2013-05-09 03:12:00,
2013-05-08 20:15:00,58.5,48.0,30.05,NW,311,0.0,4.0,68,0.00,,---,0.02,VWS V14.01,2013-05-09 03:15:00,
2013-05-08 20:17:00,58.5,48.0,30.05,NW,310,1.0,2.0,68,0.00,,---,0.02,VWS V14.01,2013-05-09 03:17:00,
2013-05-08 20:22:00,58.4,47.9,30.06,NW,310,0.0,2.0,68,0.00,,---,0.02,VWS V14.01,2013-05-09 03:22:00,
2013-05-08 20:27:00,58.3,47.8,30.06,NW,311,0.0,2.0,68,0.00,,---,0.02,VWS V14.01,2013-05-09 03:27:00,
2013-05-08 20:30:00,58.3,48.2,30.06,NNW,339,2.0,3.0,69,0.00,,---,0.02,VWS V14.01,2013-05-09 03:30:00,
2013-05-08 20:33:00,58.3,48.2,30.06,NNW,339,0.0,2.0,69,0.00,,---,0.02,VWS V14.01,2013-05-09 03:33:00,
2013-05-08 20:38:00,58.2,48.5,30.06,NNW,339,0.0,2.0,70,0.00,,---,0.02,VWS V14.01,2013-05-09 03:38:00,
2013-05-08 20:43:00,58.2,48.5,30.06,NNW,339,0.0,2.0,70,0.00,,---,0.02,VWS V14.01,2013-05-09 03:43:00,
2013-05-08 20:45:00,58.1,48.4,30.06,NNW,338,0.0,2.0,70,0.00,,---,0.02,VWS V14.01,2013-05-09 03:45:00,
2013-05-08 20:48:00,58.1,48.4,30.06,NNW,338,0.0,2.0,70,0.00,,---,0.02,VWS V14.01,2013-05-09 03:48:00,
2013-05-08 20:53:00,58.1,48.4,30.06,NNW,340,0.0,2.0,70,0.00,,---,0.02,VWS V14.01,2013-05-09 03:53:00,
2013-05-08 20:58:00,58.1,48.4,30.06,North,360,0.0,3.0,70,0.00,,---,0.02,VWS V14.01,2013-05-09 03:58:00,
2013-05-08 21:00:00,58.1,48.4,30.06,North,360,0.0,3.0,70,0.00,,---,0.02,VWS V14.01,2013-05-09 04:00:00,
2013-05-08 21:01:00,58.1,48.4,30.06,North,5,0.0,0.0,70,0.00,,---,0.02,VWS V14.01,2013-05-09 04:01:00,
2013-05-08 21:06:00,58.1,48.8,30.06,North,5,0.0,0.0,71,0.00,,---,0.02,VWS V14.01,2013-05-09 04:06:00,
2013-05-08 21:11:00,58.1,48.8,30.06,North,5,1.0,1.0,71,0.00,,---,0.02,VWS V14.01,2013-05-09 04:11:00,
2013-05-08 21:15:00,58.1,48.8,30.06,North,5,0.0,1.0,71,0.00,,---,0.02,VWS V14.01,2013-05-09 04:15:00,
2013-05-08 21:16:00,58.1,48.8,30.06,North,5,0.0,0.0,71,0.00,,---,0.02,VWS V14.01,2013-05-09 04:16:00,
2013-05-08 21:21:00,58.2,49.2,30.06,North,360,0.0,0.0,72,0.00,,---,0.02,VWS V14.01,2013-05-09 04:21:00,
2013-05-08 21:26:00,58.2,49.2,30.06,North,5,0.0,0.0,72,0.00,,---,0.02,VWS V14.01,2013-05-09 04:26:00,
2013-05-08 21:30:00,58.2,49.2,30.06,North,5,0.0,0.0,72,0.00,,---,0.02,VWS V14.01,2013-05-09 04:30:00,
2013-05-08 21:31:00,58.1,49.5,30.06,North,360,0.0,0.0,73,0.00,,---,0.02,VWS V14.01,2013-05-09 04:31:00,
2013-05-08 21:36:00,58.1,49.5,30.06,North,5,0.0,0.0,73,0.00,,---,0.02,VWS V14.01,2013-05-09 04:36:00,
2013-05-08 21:41:00,58.0,49.4,30.06,North,360,0.0,0.0,73,0.00,,---,0.02,VWS V14.01,2013-05-09 04:41:00,
2013-05-08 21:45:00,58.0,49.8,30.07,North,5,0.0,0.0,74,0.00,,---,0.02,VWS V14.01,2013-05-09 04:45:00,
2013-05-08 21:46:00,58.0,49.8,30.06,North,5,0.0,0.0,74,0.00,,---,0.02,VWS V14.01,2013-05-09 04:46:00,
2013-05-08 21:51:00,58.0,49.8,30.07,North,360,0.0,0.0,74,0.00,,---,0.02,VWS V14.01,2013-05-09 04:51:00,
2013-05-08 21:56:00,57.9,49.7,30.07,North,5,0.0,0.0,74,0.00,,---,0.02,VWS V14.01,2013-05-09 04:56:00,
2013-05-08 22:00:00,57.9,50.0,30.07,North,9,0.0,0.0,75,0.00,,---,0.02,VWS V14.01,2013-05-09 05:00:00,
2013-05-08 22:01:00,57.9,50.0,30.07,North,5,0.0,0.0,75,0.00,,---,0.02,VWS V14.01,2013-05-09 05:01:00,
2013-05-08 22:06:00,57.9,50.4,30.07,West,259,0.0,3.0,76,0.00,,---,0.02,VWS V14.01,2013-05-09 05:06:00,
2013-05-08 22:11:00,57.8,50.3,30.07,West,259,0.0,3.0,76,0.00,,---,0.02,VWS V14.01,2013-05-09 05:11:00,
2013-05-08 22:15:00,57.7,50.2,30.07,West,267,0.0,3.0,76,0.00,,---,0.02,VWS V14.01,2013-05-09 05:15:00,
2013-05-08 22:16:00,57.7,50.2,30.07,West,279,0.0,0.0,76,0.00,,---,0.02,VWS V14.01,2013-05-09 05:16:00,
2013-05-08 22:21:00,57.7,50.2,30.07,West,278,0.0,0.0,76,0.00,,---,0.02,VWS V14.01,2013-05-09 05:21:00,
2013-05-08 22:26:00,57.6,50.5,30.07,West,279,0.0,0.0,77,0.00,,---,0.02,VWS V14.01,2013-05-09 05:26:00,
2013-05-08 22:30:00,57.6,50.5,30.07,West,279,0.0,0.0,77,0.00,,---,0.02,VWS V14.01,2013-05-09 05:30:00,
2013-05-08 22:32:00,57.5,50.4,30.07,West,275,0.0,4.0,77,0.00,,---,0.02,VWS V14.01,2013-05-09 05:32:00,
2013-05-08 22:37:00,57.5,50.4,30.07,West,275,0.0,4.0,77,0.00,,---,0.02,VWS V14.01,2013-05-09 05:37:00,
2013-05-08 22:42:00,57.5,50.7,30.07,West,275,0.0,4.0,78,0.00,,---,0.02,VWS V14.01,2013-05-09 05:42:00,
2013-05-08 22:45:00,57.4,50.6,30.07,West,275,0.0,4.0,78,0.00,,---,0.02,VWS V14.01,2013-05-09 05:45:00,
2013-05-08 22:47:00,57.4,50.6,30.07,West,276,0.0,0.0,78,0.00,,---,0.02,VWS V14.01,2013-05-09 05:47:00,
2013-05-08 22:52:00,57.4,50.6,30.07,West,275,0.0,0.0,78,0.00,,---,0.02,VWS V14.01,2013-05-09 05:52:00,
2013-05-08 22:57:00,57.3,50.5,30.07,West,275,0.0,0.0,78,0.00,,---,0.02,VWS V14.01,2013-05-09 05:57:00,
2013-05-08 23:02:00,57.3,50.5,30.08,West,275,0.0,0.0,78,0.00,,---,0.02,VWS V14.01,2013-05-09 06:02:00,
2013-05-08 23:07:00,57.2,50.4,30.08,West,275,0.0,0.0,78,0.00,,---,0.02,VWS V14.01,2013-05-09 06:07:00,
2013-05-08 23:12:00,57.2,50.8,30.08,West,276,0.0,0.0,79,0.00,,---,0.02,VWS V14.01,2013-05-09 06:12:00,
2013-05-08 23:15:00,57.2,50.8,30.08,West,275,0.0,0.0,79,0.00,,---,0.02,VWS V14.01,2013-05-09 06:15:00,
2013-05-08 23:17:00,57.2,50.8,30.08,West,275,0.0,0.0,79,0.00,,---,0.02,VWS V14.01,2013-05-09 06:17:00,
2013-05-08 23:22:00,57.2,50.8,30.08,West,276,0.0,0.0,79,0.00,,---,0.02,VWS V14.01,2013-05-09 06:22:00,
2013-05-08 23:27:00,57.1,50.7,30.08,West,276,0.0,0.0,79,0.00,,---,0.02,VWS V14.01,2013-05-09 06:27:00,
2013-05-08 23:30:00,57.1,50.7,30.08,West,275,0.0,0.0,79,0.00,,---,0.02,VWS V14.01,2013-05-09 06:30:00,
2013-05-08 23:32:00,57.1,50.7,30.08,West,275,0.0,0.0,79,0.00,,---,0.02,VWS V14.01,2013-05-09 06:32:00,
2013-05-08 23:37:00,57.0,50.6,30.08,West,275,0.0,0.0,79,0.00,,---,0.02,VWS V14.01,2013-05-09 06:37:00,
2013-05-08 23:42:00,56.9,50.5,30.08,West,275,0.0,0.0,79,0.00,,---,0.02,VWS V14.01,2013-05-09 06:42:00,
2013-05-08 23:45:00,56.9,50.5,30.08,West,275,0.0,0.0,79,0.00,,---,0.02,VWS V14.01,2013-05-09 06:45:00,
2013-05-08 23:47:00,56.9,50.5,30.08,West,275,0.0,0.0,79,0.00,,---,0.02,VWS V14.01,2013-05-09 06:47:00,
2013-05-08 23:52:00,56.9,50.5,30.08,West,275,0.0,0.0,79,0.00,,---,0.02,VWS V14.01,2013-05-09 06:52:00,
2013-05-08 23:57:00,56.8,50.4,30.08,West,275,0.0,0.0,79,0.00,,---,0.02,VWS V14.01,2013-05-09 06:57:00,